AE5TC Weather Reports


Display with metric or nautical units.
time (UTC)temp
F
wind
direction
speed
MPH
gust
MPH
rain 1hr
in
rain 24hr
in
rain mn
in
humidity
%
barometer
mb
20260506222314 81 237 2.0 2.0 0.00 0.00 0.00 80 1013.9
20260506221807 80 201 2.0 3.0 0.00 0.00 0.00 81 1014.0
20260506221304 81 271 0.0 1.0 0.00 0.00 0.00 81 1014.0
20260506220802 81 170 2.0 3.0 0.00 0.00 0.00 80 1014.4
20260506220301 81 216 2.0 3.0 0.00 0.00 0.00 80 1014.3
20260506215758 81 167 3.0 3.0 0.00 0.00 0.00 82 1014.2
20260506215254 82 73 4.0 4.0 0.00 0.00 0.00 79 1014.5
20260506214750 82 222 3.0 3.0 0.00 0.00 0.00 78 1014.6
20260506214248 81 217 2.0 2.0 0.00 0.00 0.00 79 1014.3
20260506213746 81 72 2.0 2.0 0.00 0.00 0.00 81 1014.4
20260506213243 82 185 3.0 4.0 0.00 0.00 0.00 80 1014.5
20260506212740 81 230 2.0 3.0 0.00 0.00 0.00 81 1014.4
20260506212236 82 159 2.0 3.0 0.00 0.00 0.00 79 1014.5
20260506211725 83 197 2.0 2.0 0.00 0.00 0.00 78 1014.6
20260506211222 82 235 2.0 2.0 0.00 0.00 0.00 77 1014.5
20260506210713 82 143 2.0 3.0 0.00 0.00 0.00 77 1014.4
20260506210210 82 220 1.0 2.0 0.00 0.00 0.00 80 1014.5
20260506205708 82 203 3.0 3.0 0.00 0.00 0.00 80 1014.5
20260506205208 82 221 2.0 2.0 0.00 0.00 0.00 80 1014.6
20260506204705 82 226 1.0 2.0 0.00 0.00 0.00 81 1014.5
20260506204202 83 232 3.0 4.0 0.00 0.00 0.00 78 1014.6
20260506203700 82 129 2.0 3.0 0.00 0.00 0.00 81 1014.7
20260506203157 84 183 2.0 3.0 0.00 0.00 0.00 77 1014.9
20260506202655 84 248 1.0 1.0 0.00 0.00 0.00 78 1014.8
20260506202150 84 237 2.0 2.0 0.00 0.00 0.00 76 1015.1
20260506201648 82 217 2.0 2.0 0.00 0.00 0.00 79 1015.1
20260506201144 84 130 1.0 2.0 0.00 0.00 0.00 77 1015.2
20260506200641 84 195 3.0 3.0 0.00 0.00 0.00 75 1015.1
20260506200138 82 224 3.0 4.0 0.00 0.00 0.00 79 1015.5
20260506195634 83 139 3.0 3.0 0.00 0.00 0.00 79 1015.6
20260506195131 83 223 1.0 1.0 0.00 0.00 0.00 79 1015.4
20260506194629 83 212 2.0 3.0 0.00 0.00 0.00 77 1015.4
20260506194124 83 313 2.0 4.0 0.00 0.00 0.00 78 1015.7
20260506193623 84 207 2.0 3.0 0.00 0.00 0.00 77 1015.8
20260506193119 83 238 0.0 1.0 0.00 0.00 0.00 78 1015.7
20260506192616 82 202 3.0 4.0 0.00 0.00 0.00 78 1015.8
20260506192112 84 154 4.0 4.0 0.00 0.00 0.00 77 1015.8
20260506191609 82 219 1.0 2.0 0.00 0.00 0.00 77 1015.9
20260506191104 84 183 4.0 4.0 0.00 0.00 0.00 77 1015.8
20260506190557 84 297 1.0 2.0 0.00 0.00 0.00 75 1015.8
20260506190054 83 286 1.0 1.0 0.00 0.00 0.00 79 1015.9
20260506185551 84 129 2.0 2.0 0.00 0.00 0.00 76 1016.0
20260506185047 83 238 1.0 1.0 0.00 0.00 0.00 78 1016.2
20260506184544 83 236 2.0 3.0 0.00 0.00 0.00 77 1016.0
20260506184042 83 201 1.0 2.0 0.00 0.00 0.00 77 1016.2
20260506183537 83 161 3.0 6.0 0.00 0.00 0.00 77 1015.9
20260506183034 82 238 2.0 3.0 0.00 0.00 0.00 80 1016.0
20260506182532 83 147 2.0 6.0 0.00 0.00 0.00 80 1016.3
20260506182029 83 231 2.0 3.0 0.00 0.00 0.00 78 1016.2
20260506181526 83 218 2.0 2.0 0.00 0.00 0.00 79 1016.0
20260506181023 82 182 2.0 3.0 0.00 0.00 0.00 78 1016.4
20260506180520 82 49 4.0 6.0 0.00 0.00 0.00 78 1016.3
20260506180016 82 202 2.0 3.0 0.00 0.00 0.00 79 1016.3
20260506175513 82 151 2.0 3.0 0.00 0.00 0.00 76 1016.3
20260506175009 82 257 1.0 1.0 0.00 0.00 0.00 79 1016.1
20260506174508 81 21 3.0 4.0 0.00 0.00 0.00 83 1016.3
20260506174003 80 103 5.0 7.0 0.00 0.00 0.00 81 1016.4
20260506173502 81 253 1.0 2.0 0.00 0.00 0.00 82 1016.2
20260506172958 82 292 2.0 2.0 0.00 0.00 0.00 80 1016.3
20260506172456 81 331 1.0 1.0 0.00 0.00 0.00 82 1016.4
20260506171951 80 338 1.0 2.0 0.00 0.00 0.00 82 1016.2
20260506171449 81 133 3.0 4.0 0.00 0.00 0.00 81 1016.3
20260506170947 81 238 3.0 4.0 0.00 0.00 0.00 81 1016.1
20260506170443 81 215 2.0 2.0 0.00 0.00 0.00 82 1016.2
20260506165937 80 275 1.0 2.0 0.00 0.00 0.00 84 1016.1
20260506165434 80 299 1.0 1.0 0.00 0.00 0.00 84 1016.2
20260506164930 80 319 2.0 3.0 0.00 0.00 0.00 83 1016.1
20260506164427 80 286 1.0 1.0 0.00 0.00 0.00 83 1016.0
20260506163919 79 147 3.0 3.0 0.00 0.00 0.00 84 1015.8
20260506163414 80 275 1.0 1.0 0.00 0.00 0.00 82 1015.7
20260506162908 80 211 2.0 2.0 0.00 0.00 0.00 83 1016.0
20260506162406 81 196 4.0 4.0 0.00 0.00 0.00 79 1015.8
20260506161858 80 170 3.0 3.0 0.00 0.00 0.00 83 1015.9
20260506161355 79 139 4.0 6.0 0.00 0.00 0.00 82 1015.9
20260506160847 80 186 2.0 3.0 0.00 0.00 0.00 84 1015.9
20260506160344 80 8 3.0 3.0 0.00 0.00 0.00 85 1016.2
20260506155843 80 114 3.0 3.0 0.00 0.00 0.00 82 1015.8
20260506155338 81 164 1.0 2.0 0.00 0.00 0.00 82 1016.0
20260506153450 79 158 4.0 6.0 0.00 0.00 0.00 83 1015.8
20260506152948 80 358 4.0 6.0 0.00 0.00 0.00 83 1015.8
20260506152445 80 75 3.0 6.0 0.00 0.00 0.00 85 1015.8
20260506151943 81 55 2.0 3.0 0.00 0.00 0.00 83 1016.0
20260506151440 80 18 5.0 6.0 0.00 0.00 0.00 83 1015.7
20260506150938 80 165 2.0 3.0 0.00 0.00 0.00 84 1015.4
20260506150433 80 28 3.0 3.0 0.00 0.00 0.00 84 1015.5
20260506145931 80 206 3.0 6.0 0.00 0.00 0.00 84 1015.5
20260506145427 79 82 2.0 3.0 0.00 0.00 0.00 83 1015.4
20260506144925 79 329 1.0 2.0 0.00 0.00 0.00 85 1015.4
20260506144421 78 31 4.0 7.0 0.00 0.00 0.00 87 1015.3
20260506143920 79 342 1.0 2.0 0.00 0.00 0.00 85 1015.4
20260506143416 80 46 4.0 4.0 0.00 0.00 0.00 85 1015.4
20260506142914 80 220 2.0 2.0 0.00 0.00 0.00 84 1015.1
20260506142413 78 237 4.0 6.0 0.00 0.00 0.00 86 1015.3
20260506141910 78 341 2.0 2.0 0.00 0.00 0.00 89 1015.4
20260506141408 77 343 2.0 2.0 0.00 0.00 0.00 90 1015.0
20260506140906 77 58 4.0 7.0 0.00 0.00 0.00 88 1015.0
20260506140402 77 276 1.0 2.0 0.00 0.00 0.00 91 1015.1
20260506135900 75 308 3.0 4.0 0.00 0.00 0.00 92 1014.9
20260506135356 76 121 3.0 3.0 0.00 0.00 0.00 91 1015.0
20260506134853 76 359 2.0 3.0 0.00 0.00 0.00 92 1014.9
20260506134349 77 351 4.0 7.0 0.00 0.00 0.00 92 1014.8
20260506133846 77 335 4.0 4.0 0.00 0.00 0.00 91 1014.8
20260506133342 76 12 4.0 7.0 0.00 0.00 0.00 93 1014.7
20260506132839 75 321 2.0 3.0 0.00 0.00 0.00 95 1014.7
20260506132336 76 349 2.0 3.0 0.00 0.00 0.00 95 1014.6
20260506131835 76 341 2.0 2.0 0.00 0.00 0.00 95 1014.5
20260506131331 76 316 2.0 2.0 0.00 0.00 0.00 95 1014.4
20260506130828 75 304 2.0 2.0 0.00 0.00 0.00 96 1014.2
20260506130324 75 222 2.0 3.0 0.00 0.00 0.00 97 1014.3
20260506125822 74 91 4.0 4.0 0.00 0.00 0.00 98 1014.2
20260506125320 74 38 2.0 3.0 0.00 0.00 0.00 98 1013.9
20260506124819 73 288 1.0 1.0 0.00 0.00 0.00 99 1014.0
20260506124315 73 324 2.0 3.0 0.00 0.00 0.00 99 1013.9
20260506123813 72 272 0.0 1.0 0.00 0.00 0.00 99 1013.9
20260506123311 72 279 0.0 1.0 0.00 0.00 0.00 99 1013.9
20260506122808 72 20 1.0 2.0 0.00 0.00 0.00 99 1014.0
20260506122306 71 275 0.0 0.0 0.00 0.00 0.00 99 1013.8
20260506121803 71 341 1.0 2.0 0.00 0.00 0.00 99 1013.9
20260506121259 71 257 2.0 3.0 0.00 0.00 0.00 99 1013.9
20260506120757 71 270 0.0 0.0 0.00 0.00 0.00 99 1013.8
20260506120255 70 305 1.0 1.0 0.00 0.00 0.00 99 1013.6
20260506115752 70 279 0.0 1.0 0.00 0.00 0.00 99 1013.7
20260506115250 69 250 1.0 1.0 0.00 0.00 0.00 99 1013.6
20260506114748 67 276 0.0 0.0 0.00 0.00 0.00 99 1013.5
20260506114245 65 273 0.0 0.0 0.00 0.00 0.00 99 1013.5
20260506113743 64 274 0.0 0.0 0.00 0.00 0.00 99 1013.3
20260506113240 64 273 0.0 0.0 0.00 0.00 0.00 99 1013.3
20260506112736 63 272 0.0 0.0 0.00 0.00 0.00 99 1013.2
20260506112234 63 272 0.0 0.0 0.00 0.00 0.00 99 1013.3
20260506111732 63 271 0.0 0.0 0.00 0.00 0.00 99 1013.3
20260506111230 63 270 0.0 0.0 0.00 0.00 0.00 99 1013.2
20260506110726 62 270 0.0 0.0 0.00 0.00 0.00 99 1013.1
20260506110224 62 270 0.0 0.0 0.00 0.00 0.00 99 1013.3
20260506105720 62 270 0.0 0.0 0.00 0.00 0.00 99 1013.1
20260506105217 61 270 0.0 0.0 0.00 0.00 0.00 99 1013.1
20260506104715 61 270 0.0 0.0 0.00 0.00 0.00 99 1013.0
20260506104213 61 270 0.0 0.0 0.00 0.00 0.00 99 1013.0
20260506103709 61 270 0.0 0.0 0.00 0.00 0.00 99 1013.0
20260506103206 61 270 0.0 0.0 0.00 0.00 0.00 99 1013.2
20260506102705 61 270 0.0 0.0 0.00 0.00 0.00 99 1013.0
20260506102202 61 270 0.0 0.0 0.00 0.00 0.00 99 1012.9
20260506101659 61 270 0.0 0.0 0.00 0.00 0.00 99 1013.1
20260506101155 61 270 0.0 0.0 0.00 0.00 0.00 99 1013.1
20260506100654 62 270 0.0 0.0 0.00 0.00 0.00 99 1013.0
20260506100151 62 270 0.0 0.0 0.00 0.00 0.00 99 1013.2
20260506095650 62 270 0.0 0.0 0.00 0.00 0.00 99 1013.0
20260506095146 62 270 0.0 0.0 0.00 0.00 0.00 99 1013.1
20260506094643 62 270 0.0 0.0 0.00 0.00 0.00 99 1013.1
20260506094141 62 271 0.0 0.0 0.00 0.00 0.00 99 1013.1
20260506093640 62 270 0.0 0.0 0.00 0.00 0.00 99 1013.0
20260506093137 62 270 0.0 0.0 0.00 0.00 0.00 99 1013.0
20260506092634 63 270 0.0 0.0 0.00 0.00 0.00 99 1012.8
20260506092131 62 270 0.0 0.0 0.00 0.00 0.00 99 1012.8
20260506091629 62 270 0.0 0.0 0.00 0.00 0.00 99 1012.8
20260506091126 62 271 0.0 0.0 0.00 0.00 0.00 99 1012.8
20260506090625 63 271 0.0 0.0 0.00 0.00 0.00 99 1013.0
20260506090120 62 271 0.0 0.0 0.00 0.00 0.00 99 1013.0
20260506085617 63 271 0.0 0.0 0.00 0.00 0.00 99 1013.0
20260506085114 62 271 0.0 0.0 0.00 0.00 0.00 99 1013.1
20260506084611 63 271 0.0 0.0 0.00 0.00 0.00 99 1012.9
20260506084107 63 271 0.0 0.0 0.00 0.00 0.00 99 1013.2
20260506083604 63 271 0.0 0.0 0.00 0.00 0.00 99 1013.4
20260506083102 63 271 0.0 0.0 0.00 0.00 0.00 99 1013.2
20260506082558 63 271 0.0 0.0 0.00 0.00 0.00 99 1013.4
20260506082054 63 271 0.0 0.0 0.00 0.00 0.00 99 1013.6
20260506081552 63 271 0.0 0.0 0.00 0.00 0.00 99 1013.5
20260506081049 63 271 0.0 0.0 0.00 0.00 0.00 99 1013.6
20260506080547 63 271 0.0 0.0 0.00 0.00 0.00 99 1013.5
20260506073027 64 272 0.0 0.0 0.00 0.00 0.00 99 1013.3
20260506072525 64 272 0.0 0.0 0.00 0.00 0.00 99 1013.4
20260506072022 64 272 0.0 0.0 0.00 0.00 0.00 99 1013.3
20260506071520 64 272 0.0 0.0 0.00 0.00 0.00 99 1013.2
20260506071017 64 272 0.0 0.0 0.00 0.00 0.00 99 1013.2
20260506070514 64 272 0.0 0.0 0.00 0.00 0.00 99 1013.4
20260506062451 65 272 0.0 0.0 0.00 0.00 0.00 99 1013.8
20260506061947 65 272 0.0 0.0 0.00 0.00 0.00 99 1013.4
20260506061444 65 272 0.0 0.0 0.00 0.00 0.00 99 1013.7
20260506060942 65 272 0.0 0.0 0.00 0.00 0.00 99 1013.7
20260506060440 64 272 0.0 0.0 0.00 0.00 0.00 99 1013.7
20260506051412 65 271 0.0 0.0 0.00 0.00 0.00 99 1014.2
20260506050909 65 271 0.0 0.0 0.00 0.00 0.00 99 1014.1
20260506050406 65 271 0.0 0.0 0.00 0.00 0.00 99 1014.1
20260506044857 66 271 0.0 0.0 0.00 0.00 0.00 99 1014.6
20260506044355 66 271 0.0 0.0 0.00 0.00 0.00 99 1014.6
20260506043851 66 271 0.0 0.0 0.00 0.00 0.00 99 1014.4
20260506043349 66 271 0.0 0.0 0.00 0.00 0.00 99 1014.6
20260506042847 66 271 0.0 0.0 0.00 0.00 0.00 99 1014.7
20260506042346 66 271 0.0 0.0 0.00 0.00 0.00 99 1014.7
20260506041844 66 271 0.0 0.0 0.00 0.00 0.00 99 1014.7
20260506041341 66 271 0.0 0.0 0.00 0.00 0.00 99 1015.0
20260506040837 66 271 0.0 0.0 0.00 0.00 0.00 99 1014.6
20260506040335 67 271 0.0 0.0 0.00 0.00 0.00 99 1014.7
20260506035831 66 270 0.0 0.0 0.00 0.00 0.00 99 1014.7
20260506035329 66 270 0.0 0.0 0.00 0.00 0.00 99 1014.7
20260506034826 67 270 0.0 0.0 0.00 0.00 0.00 99 1014.7
20260506034323 67 270 0.0 0.0 0.00 0.00 0.00 99 1014.7
20260506033820 67 270 0.0 0.0 0.00 0.00 0.00 99 1014.9
20260506033317 67 269 0.0 0.0 0.00 0.00 0.00 99 1014.7
20260506032814 67 271 0.0 0.0 0.00 0.00 0.00 99 1014.6
20260506032311 67 272 0.0 0.0 0.00 0.00 0.00 99 1014.8
20260506031807 67 263 0.0 0.0 0.00 0.00 0.00 99 1014.7
20260506031305 67 263 0.0 0.0 0.00 0.00 0.00 99 1014.6
20260506030802 68 263 0.0 0.0 0.00 0.00 0.00 99 1014.6
20260506030300 67 263 0.0 0.0 0.00 0.00 0.00 99 1014.5
20260506025757 67 263 0.0 0.0 0.00 0.00 0.00 99 1014.4
20260506025253 68 264 0.0 0.0 0.00 0.00 0.00 99 1014.5
20260506024750 68 285 0.0 0.0 0.00 0.00 0.00 99 1014.4
20260506024247 68 285 0.0 0.0 0.00 0.00 0.00 99 1014.4
20260506023743 68 285 0.0 0.0 0.00 0.00 0.00 99 1014.5
20260506023240 68 285 0.0 0.0 0.00 0.00 0.00 99 1014.7
20260506022737 68 285 0.0 0.0 0.00 0.00 0.00 99 1014.5
20260506022235 68 285 0.0 0.0 0.00 0.00 0.00 99 1014.6
20260506021733 68 285 0.0 0.0 0.00 0.00 0.00 99 1014.5
20260506021229 69 285 0.0 0.0 0.00 0.00 0.00 99 1014.7
20260506020726 69 285 0.0 0.0 0.00 0.00 0.00 99 1014.6
20260506020224 69 285 0.0 0.0 0.00 0.00 0.00 99 1014.4
20260506015721 69 285 0.0 0.0 0.00 0.00 0.00 99 1014.3
20260506015219 70 285 0.0 0.0 0.00 0.00 0.00 99 1014.4
20260506014716 70 285 0.0 0.0 0.00 0.00 0.00 99 1014.1
20260506014212 70 285 0.0 0.0 0.00 0.00 0.00 99 1014.0
20260506013709 70 285 0.0 0.0 0.00 0.00 0.00 99 1014.1
20260506013206 70 285 0.0 0.0 0.00 0.00 0.00 99 1014.3
20260506012702 71 284 0.0 0.0 0.00 0.00 0.00 99 1014.2
20260506012159 71 311 1.0 1.0 0.00 0.00 0.00 99 1014.2
20260506011657 71 294 1.0 2.0 0.00 0.00 0.00 99 1014.1
20260506011153 71 285 0.0 0.0 0.00 0.00 0.00 99 1014.1
20260506010652 71 296 1.0 1.0 0.00 0.00 0.00 99 1014.2
20260506010148 71 257 0.0 0.0 0.00 0.00 0.00 99 1014.1
20260506005645 71 291 0.0 1.0 0.00 0.00 0.00 99 1014.2
20260506005142 71 295 1.0 1.0 0.00 0.00 0.00 99 1014.0
20260506004638 71 268 0.0 0.0 0.00 0.00 0.00 98 1013.9
20260506004136 72 295 1.0 1.0 0.00 0.00 0.00 98 1013.7
20260506003632 72 278 0.0 0.0 0.00 0.00 0.00 98 1013.9
20260506003128 72 285 0.0 1.0 0.00 0.00 0.00 97 1013.8
20260506002619 72 300 1.0 1.0 0.00 0.00 0.00 97 1013.8
20260506002115 72 334 2.0 2.0 0.00 0.00 0.00 96 1013.8
20260506001611 73 297 0.0 0.0 0.00 0.00 0.00 96 1013.9
20260506001108 73 293 1.0 1.0 0.00 0.00 0.00 95 1013.9
20260506000606 73 357 2.0 2.0 0.00 0.00 0.00 95 1013.8
20260505235601 73 287 1.0 1.0 0.00 0.00 0.00 94 1013.7
20260505235058 73 284 0.0 0.0 0.00 0.00 0.00 93 1013.7
20260505234555 73 18 1.0 2.0 0.00 0.00 0.00 92 1013.6
20260505234051 74 16 2.0 2.0 0.00 0.00 0.00 91 1013.8
20260505233549 74 270 0.0 1.0 0.00 0.00 0.00 90 1014.0
20260505233046 74 308 1.0 1.0 0.00 0.00 0.00 89 1014.0
20260505232544 75 53 4.0 4.0 0.00 0.00 0.00 88 1014.0
20260505232041 75 355 4.0 6.0 0.00 0.00 0.00 87 1013.8
20260505231538 75 346 4.0 4.0 0.00 0.00 0.00 87 1013.9
20260505231037 75 114 2.0 3.0 0.00 0.00 0.00 85 1014.0
20260505230534 75 48 4.0 4.0 0.00 0.00 0.00 85 1014.0
20260505230030 76 9 2.0 2.0 0.00 0.00 0.00 83 1014.0
20260505225527 76 220 1.0 1.0 0.00 0.00 0.00 83 1013.9
20260505225023 76 320 4.0 6.0 0.00 0.00 0.00 82 1014.0
20260505224520 77 241 1.0 1.0 0.00 0.00 0.00 81 1014.0
20260505224017 77 286 2.0 3.0 0.00 0.00 0.00 79 1013.9
20260505223514 77 309 2.0 3.0 0.00 0.00 0.00 81 1013.8
20260505223010 77 281 0.0 1.0 0.00 0.00 0.00 80 1013.8